EW7771 Weather Reports


Display with metric or nautical units.
time (UTC)temp
F
wind
direction
speed
MPH
gust
MPH
rain 1hr
in
rain 24hr
in
rain mn
in
humidity
%
barometer
mb
20260506051311 52 196 0.0 0.0 0.00 0.00 0.00 93 1015.0
20260506050806 52 196 0.0 0.0 0.00 0.00 0.00 93 1015.0
20260506050259 52 196 0.0 0.0 0.00 0.00 0.00 92 1015.0
20260506050232 52 196 0.0 0.0 0.00 0.00 0.00 92 1014.9
20260506044743 53 196 0.0 0.0 0.00 0.00 0.00 91 1015.0
20260506044459 53 196 0.0 0.0 0.00 0.00 0.00 91 1014.9
20260506043729 53 196 0.0 0.0 0.00 0.00 0.00 91 1014.9
20260506043225 53 196 0.0 0.0 0.00 0.00 0.00 90 1014.8
20260506042719 53 196 0.0 0.0 0.00 0.00 0.00 91 1014.8
20260506042211 54 196 0.0 0.0 0.00 0.00 0.00 90 1014.8
20260506041706 54 196 0.0 0.0 0.00 0.00 0.00 90 1014.7
20260506041159 54 196 0.0 0.0 0.00 0.00 0.00 90 1014.7
20260506040920 55 196 0.0 0.0 0.00 0.00 0.00 89 1014.7
20260506040147 55 196 0.0 0.0 0.00 0.00 0.00 89 1014.6
20260506035641 55 196 0.0 0.0 0.00 0.00 0.00 89 1014.6
20260506035136 56 196 0.0 0.0 0.00 0.00 0.00 89 1014.5
20260506034630 56 196 0.0 0.0 0.00 0.00 0.00 89 1014.4
20260506034124 56 196 0.0 0.0 0.00 0.00 0.00 88 1014.3
20260506033618 56 196 0.0 0.0 0.00 0.00 0.00 88 1014.3
20260506033112 57 196 0.0 0.0 0.00 0.00 0.00 87 1014.3
20260506032606 57 196 0.0 0.0 0.00 0.00 0.00 87 1014.2
20260506032059 57 196 0.0 0.0 0.00 0.00 0.00 87 1014.2
20260506031554 58 196 0.0 0.0 0.00 0.00 0.00 86 1014.1
20260506031048 58 196 0.0 0.0 0.00 0.00 0.00 86 1014.0
20260506030803 58 196 0.0 0.0 0.00 0.00 0.00 85 1014.0
20260506030035 59 196 0.0 0.0 0.00 0.00 0.00 85 1013.8
20260506025529 59 196 0.0 0.0 0.00 0.00 0.00 85 1013.8
20260506025247 59 196 0.0 0.0 0.00 0.00 0.00 84 1013.7
20260506024741 60 196 0.0 0.0 0.00 0.00 0.00 84 1013.7
20260506024450 60 196 0.0 0.0 0.00 0.00 0.00 84 1013.6
20260506023505 60 196 0.0 0.0 0.00 0.00 0.00 83 1013.6
20260506023000 60 196 0.0 0.0 0.00 0.00 0.00 83 1013.6
20260506022455 61 196 0.0 0.0 0.00 0.00 0.00 82 1013.6
20260506021948 61 196 0.0 0.0 0.00 0.00 0.00 81 1013.6
20260506021442 61 196 0.0 0.0 0.00 0.00 0.00 81 1013.6
20260506020943 61 196 0.0 0.0 0.00 0.00 0.00 81 1013.6
20260506020443 61 196 0.0 0.0 0.00 0.00 0.00 79 1013.5
20260506020217 61 196 0.0 2.0 0.00 0.00 0.00 78 1013.5
20260506015442 61 265 0.0 2.0 0.00 0.00 0.00 78 1013.5
20260506015208 61 140 0.0 0.0 0.00 0.00 0.00 78 1013.5
20260506014440 62 140 0.0 1.0 0.00 0.00 0.00 77 1013.5
20260506013938 62 139 0.0 1.0 0.00 0.00 0.00 78 1013.5
20260506013442 62 139 0.0 0.0 0.00 0.00 0.00 78 1013.5
20260506012940 62 140 0.0 3.0 0.00 0.00 0.00 78 1013.5
20260506012437 62 140 0.0 3.0 0.00 0.00 0.00 78 1013.5
20260506011938 62 141 0.0 0.0 0.00 0.00 0.00 78 1013.5
20260506011434 62 141 0.0 0.0 0.00 0.00 0.00 78 1013.6
20260506010935 61 141 0.0 1.0 0.00 0.00 0.00 78 1013.6
20260506010435 61 153 0.0 1.0 0.00 0.00 0.00 78 1013.6
20260506005931 61 148 0.0 1.0 0.00 0.00 0.00 79 1013.6
20260506005657 61 161 0.0 1.0 0.00 0.00 0.00 78 1013.5
20260506004931 61 152 0.0 1.0 0.00 0.00 0.00 78 1013.6
20260506004437 61 152 0.0 0.0 0.00 0.00 0.00 79 1013.6
20260506003937 61 198 0.0 0.0 0.00 0.00 0.00 80 1013.6
20260506003433 61 271 0.0 0.0 0.00 0.00 0.00 78 1013.6
20260506002935 61 174 0.0 0.0 0.00 0.00 0.00 78 1013.6
20260506002648 61 136 0.0 0.0 0.00 0.00 0.00 79 1013.7
20260506001932 61 132 0.0 0.0 0.00 0.00 0.00 79 1013.7
20260506001429 61 146 0.0 1.0 0.00 0.00 0.00 78 1013.7
20260506000931 61 144 0.0 2.0 0.00 0.00 0.00 77 1013.8
20260506000657 62 152 0.0 2.0 0.00 0.00 0.00 78 1013.8
20260505235929 62 98 0.0 0.0 0.00 0.00 0.00 78 1014.0
20260505235429 62 153 0.0 0.0 0.00 0.00 0.00 78 1014.0
20260505234931 62 135 0.0 0.0 0.00 0.00 0.00 78 1014.0
20260505234647 62 206 0.0 0.0 0.00 0.00 0.00 78 1014.0
20260505233926 62 279 0.0 0.0 0.00 0.00 0.00 81 1014.0
20260505233425 61 58 0.0 0.0 0.00 0.00 0.00 79 1014.0
20260505232927 61 67 0.0 1.0 0.00 0.00 0.00 79 1014.0
20260505232425 61 94 0.0 1.0 0.00 0.00 0.00 78 1014.0
20260505231925 61 217 0.0 0.0 0.00 0.00 0.00 79 1014.1
20260505231645 61 198 0.0 1.0 0.00 0.00 0.00 79 1014.1
20260505230922 61 165 0.0 1.0 0.00 0.00 0.00 79 1014.2
20260505230414 61 180 0.0 0.0 0.00 0.00 0.00 78 1014.1
20260505225908 61 269 0.0 0.0 0.00 0.00 0.00 79 1014.2
20260505225403 61 77 0.0 0.0 0.00 0.00 0.00 79 1014.3
20260505224857 61 134 0.0 0.0 0.00 0.00 0.00 80 1014.3
20260505224353 61 153 0.0 0.0 0.00 0.00 0.00 79 1014.3
20260505223845 60 155 0.0 1.0 0.00 0.00 0.00 80 1014.4
20260505223338 60 188 0.0 1.0 0.00 0.00 0.00 79 1014.4
20260505222833 60 318 0.0 0.0 0.00 0.00 0.00 80 1014.5
20260505222553 60 180 0.0 0.0 0.00 0.00 0.00 81 1014.4
20260505221820 60 161 0.0 0.0 0.00 0.00 0.00 80 1014.5
20260505221314 60 144 0.0 0.0 0.00 0.00 0.00 81 1014.5
20260505220808 60 143 0.0 0.0 0.00 0.00 0.00 81 1014.5
20260505220302 60 138 0.0 0.0 0.00 0.00 0.00 80 1014.6
20260505215757 60 188 0.0 0.0 0.00 0.00 0.00 80 1014.6
20260505215252 60 161 0.0 0.0 0.00 0.00 0.00 81 1014.6
20260505214745 60 150 0.0 0.0 0.00 0.00 0.00 80 1014.6
20260505214238 60 194 0.0 0.0 0.00 0.00 0.00 81 1014.6
20260505213731 60 184 0.0 0.0 0.00 0.00 0.00 80 1014.6
20260505213228 60 119 0.0 0.0 0.00 0.00 0.00 81 1014.6
20260505212720 60 144 0.0 2.0 0.00 0.00 0.00 81 1014.6
20260505212215 59 210 0.0 4.0 0.00 0.00 0.00 82 1014.6
20260505211931 59 140 0.0 4.0 0.00 0.00 0.00 81 1014.6
20260505211203 59 177 0.0 3.0 0.00 0.00 0.00 82 1014.6
20260505210656 59 129 0.0 0.0 0.00 0.00 0.00 81 1014.6
20260505210150 59 173 0.0 0.0 0.00 0.00 0.00 81 1014.7
20260505205644 59 157 0.0 0.0 0.00 0.00 0.00 81 1014.7
20260505205139 59 161 0.0 0.0 0.00 0.00 0.00 82 1014.8
20260505204632 59 150 0.0 1.0 0.00 0.00 0.00 81 1014.8
20260505204126 59 155 0.0 1.0 0.00 0.00 0.00 82 1014.7
20260505203620 59 178 0.0 0.0 0.00 0.00 0.00 82 1014.7
20260505203116 59 146 0.0 5.0 0.00 0.00 0.00 82 1014.8
20260505202608 59 173 0.0 5.0 0.00 0.00 0.00 82 1014.7
20260505202102 59 59 0.0 1.0 0.00 0.00 0.00 81 1014.7
20260505201556 59 302 0.0 1.0 0.00 0.00 0.00 83 1014.7
20260505201051 59 302 0.0 1.0 0.00 0.00 0.00 82 1014.7
20260505200544 58 115 0.0 0.0 0.00 0.00 0.00 83 1014.8
20260505200300 58 174 0.0 1.0 0.00 0.00 0.00 84 1014.7
20260505195533 58 311 0.0 1.0 0.00 0.00 0.00 84 1014.8
20260505195026 58 39 0.0 0.0 0.00 0.00 0.00 85 1014.8
20260505194521 58 136 0.0 0.0 0.00 0.00 0.00 85 1014.8
20260505194014 57 137 0.0 1.0 0.00 0.00 0.00 84 1014.8
20260505193508 57 132 0.0 1.0 0.00 0.00 0.00 85 1014.8
20260505193002 57 132 0.0 0.0 0.00 0.00 0.00 84 1014.8
20260505192714 57 146 0.0 0.0 0.00 0.00 0.00 84 1014.8
20260505191950 57 290 0.0 1.0 0.00 0.00 0.00 85 1014.7
20260505191713 57 311 0.0 1.0 0.00 0.00 0.00 85 1014.8
20260505190939 57 115 0.0 0.0 0.00 0.00 0.00 85 1014.8
20260505190656 57 121 0.0 0.0 0.00 0.00 0.00 85 1014.8
20260505185926 57 31 0.0 0.0 0.00 0.00 0.00 85 1014.8
20260505185421 57 30 0.0 0.0 0.00 0.00 0.00 84 1014.8
20260505184914 57 164 0.0 0.0 0.00 0.00 0.00 84 1014.7
20260505184410 57 150 0.0 0.0 0.00 0.00 0.00 85 1014.7
20260505184128 57 158 0.0 0.0 0.00 0.00 0.00 84 1014.7
20260505183357 57 105 0.0 0.0 0.00 0.00 0.00 86 1014.7
20260505183344 57 105 0.0 0.0 0.00 0.00 0.00 85 1014.7
20260505182346 57 57 0.0 1.0 0.00 0.00 0.00 84 1014.7
20260505181839 57 325 0.0 1.0 0.00 0.00 0.00 85 1014.7
20260505181332 57 226 0.0 0.0 0.00 0.00 0.00 84 1014.7
20260505180826 57 226 0.0 3.0 0.00 0.00 0.00 85 1014.7
20260505180322 57 193 0.0 3.0 0.00 0.00 0.00 83 1014.7
20260505180034 57 187 0.0 2.0 0.00 0.00 0.00 83 1014.7
20260505175538 57 191 0.0 2.0 0.00 0.00 0.00 84 1014.6
20260505174802 57 190 0.0 1.0 0.00 0.00 0.00 84 1014.6
20260505174258 57 190 0.0 1.0 0.00 0.00 0.00 83 1014.6
20260505173751 57 342 0.0 1.0 0.00 0.00 0.00 84 1014.6
20260505173251 57 45 0.0 0.0 0.00 0.00 0.00 84 1014.6
20260505172750 56 46 0.0 0.0 0.00 0.00 0.00 83 1014.6
20260505172508 56 313 0.0 0.0 0.00 0.00 0.00 84 1014.6
20260505172006 56 313 0.0 0.0 0.00 0.00 0.00 85 1014.6
20260505171514 56 313 0.0 0.0 0.00 0.00 0.00 85 1014.6
20260505170750 56 312 0.0 0.0 0.00 0.00 0.00 85 1014.5
20260505170248 56 312 0.0 0.0 0.00 0.00 0.00 86 1014.5
20260505165749 56 312 0.0 0.0 0.00 0.00 0.00 86 1014.6
20260505165250 56 312 0.0 0.0 0.00 0.00 0.00 86 1014.6
20260505164749 56 312 0.0 0.0 0.00 0.00 0.00 87 1014.5
20260505164251 56 312 0.0 0.0 0.00 0.00 0.00 87 1014.5
20260505163750 55 312 0.0 0.0 0.00 0.00 0.00 87 1014.5
20260505163740 55 343 0.0 0.0 0.00 0.00 0.00 87 1014.5
20260505162749 55 343 0.0 0.0 0.00 0.00 0.00 87 1014.5
20260505162249 55 343 0.0 0.0 0.00 0.00 0.00 87 1014.5
20260505161748 55 343 0.0 0.0 0.00 0.00 0.00 87 1014.5
20260505161248 55 343 0.0 0.0 0.00 0.00 0.00 87 1014.4
20260505161018 55 343 0.0 0.0 0.00 0.00 0.00 87 1014.5
20260505160255 55 343 0.0 0.0 0.00 0.00 0.00 87 1014.5
20260505153219 54 42 0.0 4.0 0.00 0.00 0.00 87 1014.4
20260505152713 54 177 0.0 5.0 0.00 0.00 0.00 87 1014.4
20260505152207 54 304 0.0 5.0 0.00 0.00 0.00 88 1014.4
20260505151919 54 146 0.0 1.0 0.00 0.00 0.00 88 1014.3
20260505151155 54 146 0.0 0.0 0.00 0.00 0.00 89 1014.2
20260505150651 54 146 0.0 0.0 0.00 0.00 0.00 89 1014.2
20260505150347 54 161 0.0 0.0 0.00 0.00 0.00 89 1014.1
20260505150230 54 146 0.0 0.0 0.00 0.00 0.00 89 1014.1
20260505124907 52 88 0.0 0.0 0.00 0.00 0.00 94 1012.9
20260505124405 52 106 0.0 0.0 0.00 0.00 0.00 94 1012.9
20260505123855 52 106 0.0 0.0 0.00 0.00 0.00 94 1012.8
20260505123351 52 106 0.0 0.0 0.00 0.00 0.00 94 1012.8
20260505122843 52 106 0.0 0.0 0.00 0.00 0.00 94 1012.8
20260505122336 52 106 0.0 0.0 0.00 0.00 0.00 95 1012.7
20260505121831 52 106 0.0 0.0 0.00 0.00 0.00 95 1012.7
20260505121329 52 108 0.0 0.0 0.00 0.00 0.00 95 1012.6
20260505121035 51 86 0.0 0.0 0.00 0.00 0.00 95 1012.6
20260505120312 51 86 0.0 0.0 0.00 0.00 0.00 95 1012.5
20260505115808 51 86 0.0 0.0 0.00 0.00 0.00 95 1012.5
20260505115305 51 86 0.0 0.0 0.00 0.00 0.00 95 1012.5
20260505114752 51 86 0.0 0.0 0.00 0.00 0.00 95 1012.5
20260505114246 51 86 0.0 0.0 0.00 0.00 0.00 95 1012.5
20260505113744 51 86 0.0 0.0 0.00 0.00 0.00 95 1012.5
20260505113240 51 196 0.0 0.0 0.00 0.00 0.00 95 1012.5
20260505112738 51 196 0.0 0.0 0.00 0.00 0.00 94 1012.5
20260505112238 51 196 0.0 0.0 0.00 0.00 0.00 94 1012.4
20260505111739 51 196 0.0 0.0 0.00 0.00 0.00 94 1012.4
20260505111239 51 196 0.0 0.0 0.00 0.00 0.00 94 1012.4
20260505110737 51 196 0.0 0.0 0.00 0.00 0.00 94 1012.3
20260505110508 51 196 0.0 0.0 0.00 0.00 0.00 94 1012.2
20260505101732 51 100 0.0 0.0 0.00 0.00 0.00 92 1011.9
20260505101506 52 100 0.0 0.0 0.00 0.00 0.00 92 1011.8
20260505100727 52 100 0.0 0.0 0.00 0.00 0.00 92 1011.8
20260505100453 52 100 0.0 0.0 0.00 0.00 0.00 92 1011.8
20260505095952 52 100 0.0 0.0 0.00 0.00 0.00 92 1011.7
20260505095220 52 100 0.0 0.0 0.00 0.00 0.00 93 1011.7
20260505094720 52 100 0.0 0.0 0.00 0.00 0.00 93 1011.6
20260505094219 52 103 0.0 0.0 0.00 0.00 0.00 92 1011.5
20260505093722 52 171 0.0 0.0 0.00 0.00 0.00 93 1011.5
20260505093220 52 171 0.0 0.0 0.00 0.00 0.00 92 1011.5
20260505092949 52 171 0.0 0.0 0.00 0.00 0.00 92 1011.5
20260505092447 52 171 0.0 0.0 0.00 0.00 0.00 92 1011.4
20260505091723 53 171 0.0 0.0 0.00 0.00 0.00 92 1011.4
20260505091707 53 171 0.0 0.0 0.00 0.00 0.00 92 1011.4
20260505091203 53 171 0.0 0.0 0.00 0.00 0.00 91 1011.3
20260505090220 53 171 0.0 0.0 0.00 0.00 0.00 91 1011.4
20260505085722 53 171 0.0 0.0 0.00 0.00 0.00 91 1011.4
20260505085444 53 171 0.0 0.0 0.00 0.00 0.00 91 1011.3
20260505084722 53 171 0.0 0.0 0.00 0.00 0.00 91 1011.3
20260505084227 53 171 0.0 0.0 0.00 0.00 0.00 91 1011.4
20260505083730 53 171 0.0 0.0 0.00 0.00 0.00 91 1011.3
20260505083218 53 227 0.0 0.0 0.00 0.00 0.00 90 1011.2
20260505082712 54 227 0.0 0.0 0.00 0.00 0.00 90 1011.2
20260505082213 54 227 0.0 0.0 0.00 0.00 0.00 90 1011.1
20260505081708 54 227 0.0 0.0 0.00 0.00 0.00 90 1011.2
20260505081202 54 227 0.0 0.0 0.00 0.00 0.00 90 1011.1
20260505080655 54 227 0.0 0.0 0.00 0.00 0.00 89 1011.1
20260505080152 54 227 0.0 0.0 0.00 0.00 0.00 89 1011.1
20260505075644 54 227 0.0 0.0 0.00 0.00 0.00 89 1011.0
20260505075138 54 227 0.0 0.0 0.00 0.00 0.00 89 1010.9
20260505074629 55 227 0.0 0.0 0.00 0.00 0.00 89 1010.9
20260505074128 55 227 0.0 0.0 0.00 0.00 0.00 88 1010.8
20260505073620 55 227 0.0 0.0 0.00 0.00 0.00 88 1010.9
20260505073114 55 209 0.0 0.0 0.00 0.00 0.00 88 1010.8
20260505072608 55 209 0.0 0.0 0.00 0.00 0.00 87 1010.7
20260505072104 55 209 0.0 0.0 0.00 0.00 0.00 87 1010.7
20260505071554 56 209 0.0 0.0 0.00 0.00 0.00 86 1010.6
20260505071053 56 209 0.0 0.0 0.00 0.00 0.00 85 1010.6
20260505070549 56 209 0.0 0.0 0.00 0.00 0.00 85 1010.5
20260505070040 56 209 0.0 0.0 0.00 0.00 0.00 84 1010.5
20260505065533 56 209 0.0 0.0 0.00 0.00 0.00 83 1010.4
20260505065028 56 209 0.0 0.0 0.00 0.00 0.00 84 1010.4
20260505064524 57 209 0.0 0.0 0.00 0.00 0.00 84 1010.4
20260505064016 57 209 0.0 0.0 0.00 0.00 0.00 83 1010.3
20260505063510 57 209 0.0 0.0 0.00 0.00 0.00 83 1010.2
20260505063005 57 209 0.0 0.0 0.00 0.00 0.00 82 1010.2
20260505062459 57 209 0.0 0.0 0.00 0.00 0.00 83 1010.1
20260505061953 57 209 0.0 0.0 0.00 0.00 0.00 82 1010.1
20260505061446 58 209 0.0 0.0 0.00 0.00 0.00 82 1010.1
20260505060939 58 209 0.0 9.0 0.00 0.00 0.00 81 1010.0
20260505060436 58 209 0.0 9.0 0.00 0.00 0.00 81 1010.1
20260505055928 58 182 0.0 0.0 0.00 0.00 0.00 81 1010.0
20260505055423 58 171 0.0 0.0 0.00 0.00 0.00 80 1010.0
20260505055135 58 171 0.0 0.0 0.00 0.00 0.00 80 1009.9
20260505054413 58 171 0.0 0.0 0.00 0.00 0.00 79 1009.8
20260505053904 58 122 0.0 0.0 0.00 0.00 0.00 79 1009.8
20260505053358 58 64 0.0 0.0 0.00 0.00 0.00 78 1009.8
20260505052848 58 64 0.0 0.0 0.00 0.00 0.00 78 1009.8